Regional Weather Roundup
Issued by NWS

Home | Current Version | Previous Version | Text Only | Print | Product List | Glossary Off
Versions: 1 2 3 4 5 6 7 8 9 10 11 12 13 14 15 16 17 18 19 20 21 22 23 24 25 26 27 28 29 30 31 32 33 34 35 36 37 38 39 40 41 42 43 44 45 46 47 48 49 50

912
ASUS43 KMKX 280721
RWRWI

WISCONSIN REGIONAL WEATHER ROUNDUP
NATIONAL WEATHER SERVICE MILWAUKEE/SULLIVAN WI
200 AM CDT SUN MAY 28 2017

NOTE: "FAIR" INDICATES FEW OR NO CLOUDS BELOW 12,000 FEET WITH NO
SIGNIFICANT WEATHER AND/OR OBSTRUCTIONS TO VISIBILITY.

WIZ001-002-006>008-014>016-023>028-280800-
NORTHWEST WISCONSIN

CITY           SKY/WX    TMP DP  RH WIND       PRES   REMARKS
SUPERIOR ARPT  NOT AVBL
ASHLAND        CLOUDY    57  48  72 S6        29.76S
HAYWARD        CLOUDY    58  49  72 CALM      29.77F
SIREN          CLOUDY    61  47  61 CALM      29.76F
CUMBERLAND     CLOUDY    54  48  82 SW3       29.79F
RICE LAKE      CLOUDY    56  52  86 CALM      29.81S
CHETEK         CLOUDY    55  50  85 CALM      29.79F
LADYSMITH      CLOUDY    55  51  84 CALM      29.81S
EAU CLAIRE     CLOUDY    56  51  84 SW3       29.79S
MENOMONIE      CLOUDY    56  52  85 E3        29.81S
NEW RICHMOND   CLOUDY    59  46  61 S6        29.80S
OSCEOLA        CLOUDY    60  48  65 S7        29.81S
$$

WIZ003>005-009-010-017-018-280800-
NORTH CENTRAL WISCONSIN

CITY           SKY/WX    TMP DP  RH WIND       PRES   REMARKS
MANITOWISH WTR CLOUDY    55  52  89 CALM      29.79F
ARBOR VITAE    MOCLDY    58  50  76 CALM      29.80S
WOODRUFF       MOCLDY    58  50  76 CALM      29.80S
RHINELANDER    CLOUDY    52  50  93 W5        29.81F
EAGLE RIVER    CLOUDY    52  47  84 CALM      29.81S
LAND O LAKES   CLOUDY    52  50  94 CALM      29.82S
PHILLIPS       CLOUDY    55  50  83 CALM      29.80S
TOMAHAWK       CLOUDY    49  48  96 CALM      29.81F
MEDFORD        CLOUDY    56  49  77 CALM      29.80F
MERRILL        CLOUDY    57  52  83 CALM      29.81F
$$

WIZ029-030-035-036-043>047-280800-
CENTRAL WISCONSIN

CITY           SKY/WX    TMP DP  RH WIND       PRES   REMARKS
WAUSAU         CLOUDY    59  52  77 W5        29.79F
MOSINEE        CLOUDY    57  52  82 W5        29.82F
MARSHFIELD     CLOUDY    58  51  78 CALM      29.80F
STEVENS POINT  CLOUDY    55  55  97 CALM      29.81F
WAUPACA        CLOUDY    62  54  73 CALM      29.80F
WAUTOMA        LGT RAIN  60  54  80 CALM      29.80F
WISC RAPIDS    CLOUDY    56  55  97 CALM      29.81F
CAMP DOUGLAS   RAIN      55  54  94 NW7       29.80F
$$

WIZ011>013-019>022-031-037>040-048>050-280800-
NORTHEAST WISCONSIN

CITY           SKY/WX    TMP DP  RH WIND       PRES   REMARKS
ANTIGO         CLOUDY    57  52  84 W3        29.82S
SHAWANO        CLOUDY    62  51  67 CALM      29.80S
OCONTO         CLOUDY    56  55  94 W3        29.79S
STURGEON BAY   PTCLDY    61  53  75 SW6       29.79F
GREEN BAY      LGT RAIN  60  58  92 E3        29.80F
MANITOWOC      CLOUDY    61  55  81 CALM      29.80F
APPLETON       CLOUDY    61  50  67 NW5       29.78F
CLINTONVILLE   CLOUDY    59  52  77 SE3       29.80S
OSHKOSH        CLOUDY    62  53  72 N8        29.79F
$$

WIZ032>034-041-042-053>061-280800-
SOUTHWEST WISCONSIN

CITY           SKY/WX    TMP DP  RH WIND       PRES   REMARKS
LA CROSSE      CLOUDY    59  57  93 S3        29.81F
SPARTA         CLOUDY    55  55 100 CALM      29.83S
VIROQUA        CLOUDY    57  52  82 MISG      29.83S
BOSCOBEL       CLOUDY    60  58  92 CALM      29.83S
PRAIRIE DU CHI DRIZZLE   60  57  91 CALM      29.82F
PLATTEVILLE    CLOUDY    61  61 100 N3        29.82S
$$

WIZ056-057-062-063-064-067-068-280800-
SOUTH CENTRAL WISCONSIN

CITY           SKY/WX    TMP DP  RH WIND       PRES   REMARKS
REEDSBURG      CLOUDY    59  54  82 CALM      29.81F
BARABOO/DELLS  CLOUDY    58  55  88 CALM      29.82S
LONE ROCK      CLOUDY    60  57  89 CALM      29.82S
MINERAL POINT  CLOUDY    61  59  94 N5        29.82S
MADISON        CLOUDY    61  55  81 CALM      29.80S
MIDDLETON      CLOUDY    62  58  87 CALM      29.82F
WATERTOWN      CLOUDY    62  61  99 CALM      29.80S
MONROE         MOCLDY    61  57  88 CALM      29.80F
JANESVILLE     CLOUDY    64  61  88 CALM      29.79F
$$

WIZ051-052-058>065-066-070>072-280800-
SOUTHEAST WISCONSIN

CITY           SKY/WX    TMP DP  RH WIND       PRES   REMARKS
MILWAUKEE      CLOUDY    63  56  78 SE5       29.80F
WAUKESHA       CLOUDY    61  52  72 SW3       29.82R
MILWAUKEE/TIMM   N/A     63  52  67 CALM      29.80F
RACINE         CLOUDY    60  51  72 S7        29.82F
KENOSHA        CLOUDY    59  51  75 S7        29.81F
FOND DU LAC    CLOUDY    63  56  78 N5        29.79F
SHEBOYGAN      CLOUDY    63  57  81 NW6       29.80F
WEST BEND      CLOUDY    59  55  88 SE3       29.80F
JUNEAU         CLOUDY    62  57  81 CALM      29.81F
$$

LSZ147-162-280800-
LAKE SUPERIOR

STATION/POSITION TIME  TEMP    WIND        PRES    WAVE
                       AIR SEA DIR/SP/G            HT/PER
                 (UTC) (F)     (DEG/KT/KT) (MB)    (FT/S)
W MID LAKE BUOY  0650   44 37  210/ 10/ 10 1007.1F   0
DEVILS ISLAND    0700   54     230/  3/  4 1006.9S
PORT WING        0640   63     180/  6/  8 1007.1F
SAXON HARBOR     0640   61     190/  6/ 10 1007.5S
$$

LMZ867-665-643>646-280800-
LAKE MICHIGAN

STATION/POSITION TIME  TEMP    WIND        PRES    WAVE
                       AIR SEA DIR/SP/G            HT/PER
                 (UTC) (F)     (DEG/KT/KT) (MB)    (FT/S)
CHAMBERS ISLAND  0640   60     200/  5/  8 1008.1S
N MID LAKE BUOY  0650   46 42  180/ 10/ 12 1009.3F
NORTHPORT PIER   0640   51     140/  7/  8 1008.5R
SISTER BAY       0536   62        CALM       N/A
ALGOMA LAKESHORE 0531             CALM       N/A
KEWAUNEE LAKESHO 0700   60     300/  5/  6 1008.5
SHEBOYGAN LAKESH 0700   64     240/  4/  5 1008.9S
PORT WASHINGTON  0640   63     280/  2/  4 1009.8F
ATWATER BUOY     0609   54     150/  4/  6 1009.4F
MILWAUKEE LAKESH 0700   54     180/  3/  4   N/A
S MID LAKE BUOY  0650   52 49  300/  4/  6 1009.9S   0
KENOSHA   LAKESH 0700   58     200/  3/  6 1009.5
$$

TC  - TEMPERATURE IN CELSIUS
VSB - VISIBILITY IN STATUTE MILES
WCI - WIND CHILL INDEX
HX  - HEAT INDEX





USA.gov is the U.S. government's official web portal to all federal, state and local government web resources and services.